Location: Buffign�court
(47.8126°N, 6.0176°E)
Time: 02:55:28
(UTC+00:00)

Cosmos 1980 Rocket - Pass Details

Date: 16 June 2021
Orbit: 830 x 849 km, 71.0° (Epoch: 04 August)

Event Time Altitude Azimuth Distance (km) Brightness Sun altitude
Rises 20:17:31 0° 227° (SW) 3,382 5.4 -6.0°
Reaches altitude 10° 20:20:05 10° 234° (SW) 2,448 4.7 -6.3°
Maximum altitude 20:25:25 43° 306° (NW) 1,155 3.6 -6.9°
Drops below altitude 10° 20:30:46 10° 18° (NNE) 2,451 5.0 -7.5°
Sets 20:33:20 0° 25° (NNE) 3,387 5.7 -7.8°
